When you browse on this site, cookies collect data to enhance your experience and personalize the content and advertising you see.
Visit our Privacy Policy to learn more. By continuing to use the site, you agree to this use of cookies and data.
  • In Czech Republic
  • List of Countries
  • For 7 days
  • Water Temperature
  • Weather Map
  • Weather Widgets
  • user-avatar
    Login

    Hourly Weather Praha

    Today, 30 May, Saturday

    Time Temperature Precipitation Wind Pressure Humidity
    00:00 +11°C° 0 mm 1 mps 748 mmHg 81%
    01:00 +11°C° 0 mm 1 mps 748 mmHg 83%
    02:00 +11°C° 0.1 mm 1 mps 748 mmHg 84%
    03:00 +11°C° 0.1 mm 1 mps 748 mmHg 86%
    04:00 +10°C° 0.1 mm 1 mps 748 mmHg 88%
    05:00 +10°C° 0.2 mm 2 mps 748 mmHg 87%
    06:00 +10°C° 0.2 mm 2 mps 748 mmHg 86%
    07:00 +11°C° 0.2 mm 3 mps 748 mmHg 86%
    08:00 +12°C° 0.1 mm 3 mps 747 mmHg 76%
    09:00 +12°C° 0.1 mm 4 mps 747 mmHg 66%
    10:00 +13°C° 0.1 mm 5 mps 747 mmHg 57%
    11:00 +14°C° 0 mm 5 mps 747 mmHg 55%
    12:00 +15°C° 0 mm 5 mps 747 mmHg 54%
    13:00 +15°C° 0 mm 5 mps 747 mmHg 53%
    14:00 +15°C° 0.1 mm 5 mps 746 mmHg 54%
    15:00 +15°C° 0.1 mm 5 mps 746 mmHg 55%
    16:00 +15°C° 0.1 mm 5 mps 745 mmHg 56%
    17:00 +15°C° 0 mm 4 mps 745 mmHg 60%
    18:00 +14°C° 0 mm 3 mps 745 mmHg 64%
    19:00 +14°C° 0 mm 2 mps 745 mmHg 68%
    20:00 +13°C° 0 mm 2 mps 746 mmHg 71%
    21:00 +10°C° 0 mm 2 mps 746 mmHg 74%
    22:00 +9°C° 0 mm 2 mps 746 mmHg 77%
    23:00 +9°C° 0 mm 2 mps 746 mmHg 79%

    Tomorrow, 31 May, Sunday

    Time Temperature Precipitation Wind Pressure Humidity
    00:00 +8°C° 0 mm 2 mps 746 mmHg 82%
    01:00 +8°C° 0 mm 2 mps 746 mmHg 84%
    02:00 +7°C° 0 mm 2 mps 746 mmHg 87%
    03:00 +7°C° 0 mm 2 mps 745 mmHg 90%
    04:00 +7°C° 0 mm 2 mps 745 mmHg 92%
    05:00 +8°C° 0 mm 3 mps 745 mmHg 88%
    06:00 +8°C° 0 mm 4 mps 745 mmHg 85%
    07:00 +10°C° 0 mm 4 mps 745 mmHg 81%
    08:00 +10°C° 0.1 mm 4 mps 745 mmHg 81%
    09:00 +10°C° 0.1 mm 4 mps 745 mmHg 81%
    10:00 +10°C° 0.1 mm 5 mps 745 mmHg 81%
    11:00 +11°C° 0.1 mm 4 mps 745 mmHg 83%
    12:00 +11°C° 0.1 mm 4 mps 745 mmHg 85%
    13:00 +11°C° 0.1 mm 4 mps 745 mmHg 87%
    14:00 +12°C° 0.1 mm 4 mps 745 mmHg 85%
    15:00 +13°C° 0.1 mm 3 mps 745 mmHg 83%
    16:00 +14°C° 0.1 mm 3 mps 745 mmHg 81%
    17:00 +14°C° 0 mm 3 mps 745 mmHg 80%
    18:00 +16°C° 0 mm 3 mps 745 mmHg 79%
    19:00 +16°C° 0 mm 2 mps 745 mmHg 78%
    20:00 +15°C° 0 mm 2 mps 745 mmHg 82%
    21:00 +13°C° 0 mm 2 mps 745 mmHg 86%
    22:00 +12°C° 0 mm 2 mps 746 mmHg 90%
    23:00 +12°C° 0 mm 2 mps 746 mmHg 91%

    Day after tomorrow, 1 June, Monday

    Time Temperature Precipitation Wind Pressure Humidity
    00:00 +10°C° 0 mm 2 mps 746 mmHg 92%
    01:00 +10°C° 0 mm 2 mps 746 mmHg 93%
    02:00 +9°C° 0 mm 2 mps 746 mmHg 94%
    03:00 +9°C° 0 mm 2 mps 746 mmHg 94%
    04:00 +9°C° 0 mm 2 mps 746 mmHg 95%
    05:00 +10°C° 0 mm 2 mps 747 mmHg 91%
    06:00 +13°C° 0 mm 2 mps 747 mmHg 88%
    07:00 +14°C° 0 mm 2 mps 747 mmHg 84%
    08:00 +16°C° 0 mm 3 mps 747 mmHg 77%
    09:00 +17°C° 0 mm 3 mps 748 mmHg 70%
    10:00 +19°C° 0 mm 4 mps 748 mmHg 63%
    11:00 +19°C° 0 mm 4 mps 747 mmHg 60%
    12:00 +19°C° 0 mm 4 mps 747 mmHg 58%
    13:00 +20°C° 0 mm 4 mps 747 mmHg 55%
    14:00 +20°C° 0 mm 4 mps 747 mmHg 55%
    15:00 +20°C° 0 mm 4 mps 747 mmHg 55%
    16:00 +20°C° 0 mm 4 mps 746 mmHg 55%
    17:00 +19°C° 0 mm 4 mps 746 mmHg 60%
    18:00 +18°C° 0 mm 4 mps 746 mmHg 66%
    19:00 +16°C° 0 mm 3 mps 746 mmHg 71%
    20:00 +14°C° 0 mm 3 mps 747 mmHg 74%
    21:00 +12°C° 0 mm 3 mps 747 mmHg 77%
    22:00 +10°C° 0 mm 2 mps 747 mmHg 80%
    23:00 +10°C° 0 mm 2 mps 747 mmHg 82%

    2 June, Tuesday

    Time Temperature Precipitation Wind Pressure Humidity
    00:00 +10°C° 0 mm 1 mps 747 mmHg 84%
    01:00 +9°C° 0 mm 1 mps 747 mmHg 86%
    02:00 +9°C° 0 mm 1 mps 747 mmHg 87%
    03:00 +8°C° 0 mm 1 mps 747 mmHg 88%
    04:00 +8°C° 0 mm 1 mps 747 mmHg 89%
    05:00 +10°C° 0 mm 1 mps 747 mmHg 84%
    06:00 +12°C° 0 mm 1 mps 747 mmHg 78%
    07:00 +13°C° 0 mm 1 mps 747 mmHg 73%
    08:00 +15°C° 0 mm 2 mps 747 mmHg 68%
    09:00 +16°C° 0 mm 2 mps 746 mmHg 63%
    10:00 +17°C° 0 mm 3 mps 746 mmHg 58%
    11:00 +18°C° 0 mm 3 mps 746 mmHg 58%
    12:00 +18°C° 0 mm 4 mps 745 mmHg 57%
    13:00 +19°C° 0 mm 4 mps 745 mmHg 56%
    14:00 +19°C° 0 mm 4 mps 745 mmHg 56%
    15:00 +19°C° 0 mm 3 mps 744 mmHg 57%
    16:00 +19°C° 0 mm 3 mps 744 mmHg 57%
    17:00 +18°C° 0 mm 3 mps 743 mmHg 62%
    18:00 +17°C° 0 mm 2 mps 743 mmHg 67%
    19:00 +16°C° 0 mm 2 mps 742 mmHg 71%
    20:00 +15°C° 0 mm 2 mps 742 mmHg 76%
    21:00 +14°C° 0 mm 2 mps 742 mmHg 80%
    22:00 +12°C° 0 mm 2 mps 742 mmHg 84%
    23:00 +11°C° 0 mm 1 mps 742 mmHg 87%

    3 June, Wednesday

    Time Temperature Precipitation Wind Pressure Humidity
    00:00 +11°C° 0 mm 1 mps 742 mmHg 89%
    01:00 +10°C° 0 mm 1 mps 741 mmHg 92%
    02:00 +10°C° 0 mm 1 mps 741 mmHg 92%
    03:00 +9°C° 0 mm 1 mps 741 mmHg 92%
    04:00 +9°C° 0 mm 1 mps 740 mmHg 92%
    05:00 +10°C° 0 mm 1 mps 740 mmHg 87%
    06:00 +12°C° 0 mm 1 mps 740 mmHg 82%
    07:00 +13°C° 0 mm 1 mps 740 mmHg 77%
    08:00 +15°C° 0 mm 2 mps 740 mmHg 70%
    09:00 +16°C° 0 mm 2 mps 739 mmHg 63%
    10:00 +17°C° 0 mm 3 mps 739 mmHg 55%
    11:00 +18°C° 0 mm 3 mps 739 mmHg 53%
    12:00 +19°C° 0 mm 3 mps 739 mmHg 50%
    13:00 +19°C° 0 mm 2 mps 738 mmHg 48%
    14:00 +19°C° 0 mm 2 mps 738 mmHg 48%
    15:00 +19°C° 0 mm 2 mps 738 mmHg 48%
    16:00 +20°C° 0 mm 2 mps 738 mmHg 48%
    17:00 +18°C° 0 mm 2 mps 738 mmHg 53%
    18:00 +18°C° 0 mm 1 mps 738 mmHg 59%
    19:00 +16°C° 0 mm 1 mps 737 mmHg 65%
    20:00 +15°C° 0 mm 1 mps 738 mmHg 69%
    21:00 +13°C° 0 mm 1 mps 738 mmHg 74%
    22:00 +12°C° 0 mm 1 mps 739 mmHg 78%
    23:00 +11°C° 0 mm 1 mps 739 mmHg 80%

    4 June, Thursday

    Time Temperature Precipitation Wind Pressure Humidity
    00:00 +10°C° 0 mm 1 mps 739 mmHg 82%
    01:00 +9°C° 0 mm 0 mps 738 mmHg 85%
    02:00 +9°C° 0 mm 0 mps 739 mmHg 85%
    03:00 +9°C° 0 mm 0 mps 739 mmHg 85%
    04:00 +9°C° 0 mm 0 mps 739 mmHg 85%
    05:00 +10°C° 0 mm 0 mps 739 mmHg 81%
    06:00 +13°C° 0 mm 1 mps 739 mmHg 77%
    07:00 +14°C° 0 mm 1 mps 739 mmHg 73%
    08:00 +16°C° 0 mm 1 mps 739 mmHg 65%
    09:00 +18°C° 0 mm 1 mps 739 mmHg 58%
    10:00 +18°C° 0 mm 2 mps 739 mmHg 51%
    11:00 +19°C° 0 mm 2 mps 739 mmHg 48%
    12:00 +21°C° 0 mm 1 mps 739 mmHg 45%
    13:00 +22°C° 0 mm 1 mps 739 mmHg 42%
    14:00 +22°C° 0 mm 1 mps 738 mmHg 42%
    15:00 +22°C° 0 mm 1 mps 738 mmHg 42%
    16:00 +22°C° 0 mm 1 mps 738 mmHg 42%
    17:00 +21°C° 0 mm 1 mps 738 mmHg 48%
    18:00 +19°C° 0 mm 1 mps 737 mmHg 54%
    19:00 +18°C° 0 mm 1 mps 737 mmHg 60%
    20:00 +16°C° 0 mm 1 mps 737 mmHg 62%
    21:00 +14°C° 0 mm 1 mps 737 mmHg 63%
    22:00 +13°C° 0 mm 1 mps 737 mmHg 65%
    23:00 +12°C° 0 mm 1 mps 737 mmHg 66%
    Show more